date,time,DOY,Ta_1_1_1,RH_1_1_1,LWin_1_1_1,LWout_1_1_1,SWin_1_1_1,SWout_1_1_1,PPFD_1_1_1,SWC_1_1_1,Ts_1_1_1
[yyyy-mm-dd],[HH:MM],[ddd.ddd],[K],[%],[W+1m-2],[W+1m-2],[W+1m-2],[W+1m-2],[µmol+1m-2s-1],[m+3m-3],[K]
2012-10-23,00:30,297.020,279.97275862068960,94.334482758620680,-6.7793103448275867,-5.7724137931034480,-0.66758620689655179,-0.38620689655172413,2.75862068965517264E-003,-9999.0,279.90999999999991
2012-10-23,01:00,297.041,279.99833333333339,94.362333333333339,-6.2790000000000008,-4.4879999999999987,-0.59833333333333338,-0.28200000000000008,5.33333333333333402E-003,-9999.0,279.90999999999991
2012-10-23,01:30,297.062,280.15399999999994,93.599666666666693,-6.0806666666666667,-3.8996666666666671,-0.48166666666666658,-0.19500000000000003,3.99999999999999922E-003,-9999.0,279.90999999999991
2012-10-23,02:00,297.083,280.36866666666663,92.275000000000006,-5.9170000000000016,-3.9760000000000004,-0.43166666666666664,-0.15700000000000000,1.15648231731787138E-019,-9999.0,279.90999999999991
2012-10-23,02:30,297.104,280.54200000000009,91.852666666666664,-6.1419999999999977,-3.8310000000000000,-0.47933333333333328,-0.17200000000000004,6.00000000000000186E-003,-9999.0,279.90999999999991
2012-10-23,03:00,297.124,280.60066666666677,92.051999999999978,-6.6800000000000015,-4.6736666666666666,-0.62266666666666681,-0.28133333333333338,2.33333333333333353E-003,-9999.0,279.90999999999991
2012-10-23,03:30,297.145,280.62033333333335,93.109666666666683,-6.6553333333333331,-4.0033333333333339,-0.33266666666666656,-1.2169999999999999,2.33333333333333353E-003,-9999.0,279.90999999999991
2012-10-23,04:00,297.166,280.74933333333331,93.656000000000006,-6.4286666666666674,-3.9279999999999990,-0.31933333333333341,-1.1156666666666666,1.33333333333333329E-003,-9999.0,279.90999999999991
2012-10-23,04:30,297.187,281.00500000000005,93.848000000000013,-6.0630000000000006,-6.0678571428571422,-0.19933333333333339,-1.2243333333333335,1.33333333333333329E-003,-9999.0,279.90999999999991
2012-10-23,05:00,297.208,281.09366666666682,95.096333333333305,-5.4206666666666674,-6.2965217391304336,3.40000000000000024E-002,-1.2223333333333337,2.33333333333333353E-003,-9999.0,279.90999999999991
2012-10-23,05:30,297.229,281.46166666666664,94.105000000000004,-5.6460000000000008,-7.1859090909090915,-1.33333333333332895E-003,-1.4553333333333331,1.66666666666666677E-003,-9999.0,279.90999999999991
2012-10-23,06:00,297.249,281.56966666666671,95.278999999999996,-5.5369999999999999,-4.9459999999999997,0.41366666666666663,-1.2193333333333329,1.76666666666666639E-002,-9999.0,279.90999999999991
2012-10-23,06:30,297.270,281.90366666666671,94.613333333333330,-6.3380000000000001,-6.3156666666666670,0.60933333333333350,0.55699999999999994,2.6866666666666670,-9999.0,279.90999999999991
2012-10-23,07:00,297.291,281.95699999999999,94.935666666666691,-6.3100000000000005,-4.5110000000000001,0.79899999999999993,7.1429999999999998,16.356999999999996,-9999.0,279.90999999999991
2012-10-23,07:30,297.312,281.99966666666671,95.600333333333339,-6.2920000000000007,-4.4103333333333330,1.6020000000000001,17.417666666666669,38.630333333333319,-9999.0,279.90999999999991
2012-10-23,08:00,297.333,282.20600000000002,95.463999999999984,-5.7243333333333348,-4.0106666666666664,2.5109999999999997,26.460666666666672,59.463666666666668,-9999.0,279.90999999999991
2012-10-23,08:30,297.354,282.37566666666675,96.045000000000016,-5.3843333333333350,-4.4873333333333330,3.7366666666666664,41.727999999999994,94.059666666666672,-9999.0,279.90999999999991
2012-10-23,09:00,297.374,282.35166666666669,97.500000000000014,-5.3280000000000021,-4.3199999999999994,2.3509999999999995,29.596999999999998,67.897333333333322,-9999.0,279.90999999999991
2012-10-23,09:30,297.395,282.39900000000006,98.555999999999983,-4.3220000000000001,-3.5506666666666669,2.6823333333333337,32.571666666666665,74.666333333333355,-9999.0,279.90999999999991
2012-10-23,10:00,297.416,282.55700000000002,99.080333333333314,-4.1590000000000007,-3.5429999999999993,4.8929999999999998,56.277333333333338,128.44733333333335,-9999.0,279.90999999999991
2012-10-23,10:30,297.437,282.86466666666672,99.195666666666668,-4.3239999999999990,-3.9136666666666682,6.9643333333333368,79.093333333333320,186.57200000000003,-9999.0,279.90999999999991
2012-10-23,11:00,297.458,283.13166666666660,99.355333333333320,-4.5019999999999998,-4.1666666666666670,5.0789999999999988,60.526333333333334,145.81500000000000,-9999.0,279.90999999999991
2012-10-23,11:30,297.479,283.40433333333334,99.424333333333337,-3.4409999999999994,-3.5993333333333335,10.479333333333335,114.12866666666667,264.62133333333333,-9999.0,279.90999999999991
2012-10-23,12:00,297.499,283.61666666666667,99.420666666666662,-3.5726666666666671,-3.6876666666666664,5.9176666666666682,68.850333333333325,161.26433333333338,-9999.0,279.90999999999991
2012-10-23,12:30,297.520,283.80800000000005,99.244666666666660,-3.5353333333333330,-4.1113333333333335,5.6276666666666655,65.619000000000000,152.17000000000002,-9999.0,279.90999999999991
2012-10-23,13:00,297.541,284.04900000000004,98.526666666666671,-4.5099999999999989,-4.9520000000000000,4.2300000000000004,53.162666666666688,126.07700000000003,-9999.0,279.90999999999991
2012-10-23,13:30,297.562,284.20033333333333,98.063333333333318,-4.7609999999999992,-5.3790000000000013,4.2833333333333341,53.047333333333327,124.09700000000001,-9999.0,279.90999999999991
2012-10-23,14:00,297.583,284.27566666666672,98.458666666666673,-4.8490000000000002,-4.3023333333333333,3.1749999999999994,40.876666666666665,95.859999999999985,-9999.0,279.90999999999991
2012-10-23,14:30,297.604,284.32233333333340,98.776333333333341,-4.4343333333333321,-3.2676666666666661,3.3400000000000007,42.932333333333332,96.629000000000033,-9999.0,279.90999999999991
2012-10-23,15:00,297.624,284.27933333333334,99.140000000000001,-4.7043333333333326,-3.4733333333333332,2.2926666666666669,30.324666666666666,69.629333333333321,-9999.0,279.90999999999991
2012-10-23,15:30,297.645,284.30966666666677,99.400333333333350,-4.5553333333333352,-3.5116666666666663,2.8710000000000004,35.586333333333336,81.294333333333341,-9999.0,279.90999999999991
2012-10-23,16:00,297.666,284.33466666666669,99.513000000000005,-4.8926666666666678,-4.0270000000000001,1.2633333333333332,17.655666666666669,41.310666666666663,-9999.0,279.90999999999991
2012-10-23,16:30,297.687,284.39200000000011,99.575999999999979,-5.3783333333333339,-4.4413333333333327,8.83333333333333331E-002,4.7259999999999991,12.376333333333331,-9999.0,279.90999999999991
2012-10-23,17:00,297.708,284.37633333333338,99.674999999999983,-5.0386666666666668,-4.0819999999999999,3.99999999999999748E-003,2.3756666666666675,5.6019999999999994,-9999.0,279.90999999999991
2012-10-23,17:30,297.729,284.39066666666662,99.797000000000011,-5.0416666666666679,-4.0449999999999999,-0.21500000000000002,3.46666666666666859E-002,0.46400000000000002,-9999.0,279.90999999999991
2012-10-23,18:00,297.749,284.40966666666657,99.885333333333321,-4.8716666666666670,-3.9440000000000000,-0.19133333333333333,-0.14233333333333328,3.00000000000000006E-003,-9999.0,279.90999999999991
2012-10-23,18:30,297.770,284.48233333333332,99.957333333333324,-5.1419999999999986,-4.0809999999999995,-0.20866666666666672,-0.15333333333333335,2.66666666666666658E-003,-9999.0,279.90999999999991
2012-10-23,19:00,297.791,284.50733333333335,99.987857142857138,-4.8466666666666667,-3.9323333333333341,-0.18800000000000003,-0.14833333333333337,2.00000000000000004E-003,-9999.0,279.90999999999991
2012-10-23,19:30,297.812,284.47333333333336,99.986551724137911,-4.8616666666666664,-3.8513333333333333,-0.19066666666666671,-0.14366666666666666,2.66666666666666658E-003,-9999.0,279.90999999999991
2012-10-23,20:00,297.833,284.54733333333337,99.991666666666660,-4.8196666666666674,-3.7803333333333335,-0.16600000000000001,-0.12366666666666669,2.66666666666666658E-003,-9999.0,279.90999999999991
2012-10-23,20:30,297.854,284.73733333333342,99.990384615384599,-4.8033333333333328,-3.8206666666666660,-0.13399999999999998,-9.46666666666666490E-002,1.33333333333333329E-003,-9999.0,279.90999999999991
2012-10-23,21:00,297.874,284.95266666666669,99.994482758620677,-5.0326666666666675,-3.9856666666666669,-0.14966666666666667,-0.10866666666666668,1.66666666666666677E-003,-9999.0,279.90999999999991
2012-10-23,21:30,297.895,285.17400000000004,99.995172413793071,-4.8513333333333337,-3.8649999999999998,-0.14066666666666669,-9.76666666666667210E-002,2.33333333333333353E-003,-9999.0,279.90999999999991
2012-10-23,22:00,297.916,285.37900000000002,99.994615384615372,-4.7130000000000001,-3.7523333333333326,-0.12100000000000000,-7.10000000000000075E-002,1.00000000000000002E-003,-9999.0,279.90999999999991
